TimeEDT,TemperatureF,Dew PointF,Humidity,Sea Level PressureIn,VisibilityMPH,Wind Direction,Wind SpeedMPH,Gust SpeedMPH,PrecipitationIn,Events,Conditions,WindDirDegrees,DateUTC
12:15 AM,53.6,53.6,100,30.00,10.0,Calm,Calm,-,N/A,,Clear,0,2012-09-09 04:15:00
12:55 AM,51.8,51.8,100,30.00,10.0,Calm,Calm,-,N/A,,Clear,0,2012-09-09 04:55:00
1:15 AM,53.6,53.6,100,30.00,10.0,Calm,Calm,-,N/A,,Clear,0,2012-09-09 05:15:00
1:35 AM,51.8,51.8,100,30.00,10.0,Calm,Calm,-,N/A,,Clear,0,2012-09-09 05:35:00
1:55 AM,51.8,51.8,100,29.99,5.0,Calm,Calm,-,N/A,,Clear,0,2012-09-09 05:55:00
2:15 AM,51.8,51.8,100,29.99,10.0,Calm,Calm,-,N/A,,Clear,0,2012-09-09 06:15:00
2:35 AM,50.0,50.0,100,29.98,5.0,Calm,Calm,-,N/A,,Clear,0,2012-09-09 06:35:00
2:55 AM,51.8,51.8,100,29.98,5.0,Calm,Calm,-,N/A,,Clear,0,2012-09-09 06:55:00
3:15 AM,48.2,48.2,100,29.97,4.0,Calm,Calm,-,N/A,,Clear,0,2012-09-09 07:15:00
3:35 AM,50.0,50.0,100,29.97,4.0,Calm,Calm,-,N/A,,Clear,0,2012-09-09 07:35:00
3:55 AM,48.2,48.2,100,29.97,5.0,Calm,Calm,-,N/A,,Clear,0,2012-09-09 07:55:00
4:15 AM,50.0,50.0,100,29.97,4.0,Calm,Calm,-,N/A,,Clear,0,2012-09-09 08:15:00
4:35 AM,48.2,48.2,100,29.97,2.0,Calm,Calm,-,N/A,,Clear,0,2012-09-09 08:35:00
4:55 AM,48.2,48.2,100,29.97,5.0,Calm,Calm,-,N/A,,Clear,0,2012-09-09 08:55:00
5:15 AM,48.2,48.2,100,29.97,5.0,Calm,Calm,-,N/A,,Clear,0,2012-09-09 09:15:00
5:35 AM,48.2,48.2,100,29.97,5.0,Calm,Calm,-,N/A,,Clear,0,2012-09-09 09:35:00
5:55 AM,48.2,48.2,100,29.98,4.0,Calm,Calm,-,N/A,,Clear,0,2012-09-09 09:55:00
6:15 AM,48.2,48.2,100,29.98,3.0,Calm,Calm,-,N/A,,Clear,0,2012-09-09 10:15:00
6:35 AM,50.0,50.0,100,29.98,5.0,Calm,Calm,-,N/A,,Clear,0,2012-09-09 10:35:00
6:55 AM,50.0,50.0,100,29.99,4.0,Calm,Calm,-,N/A,,Clear,0,2012-09-09 10:55:00
7:15 AM,51.8,51.8,100,30.00,3.0,Calm,Calm,-,N/A,,Clear,0,2012-09-09 11:15:00
7:55 AM,53.6,53.6,100,30.02,10.0,Calm,Calm,-,N/A,,Clear,0,2012-09-09 11:55:00
8:15 AM,55.4,55.4,100,30.01,10.0,Calm,Calm,-,N/A,,Clear,0,2012-09-09 12:15:00
8:35 AM,55.4,55.4,100,30.02,10.0,West,4.6,-,N/A,,Clear,270,2012-09-09 12:35:00
8:55 AM,57.2,57.2,100,30.02,10.0,West,4.6,-,N/A,,Clear,260,2012-09-09 12:55:00
9:35 AM,60.8,57.2,88,30.03,10.0,West,4.6,-,N/A,,Clear,260,2012-09-09 13:35:00
9:55 AM,62.6,57.2,82,30.04,10.0,West,3.5,-,N/A,,Scattered Clouds,280,2012-09-09 13:55:00
10:15 AM,64.4,57.2,77,30.04,10.0,WNW,4.6,-,N/A,,Scattered Clouds,300,2012-09-09 14:15:00
10:35 AM,64.4,57.2,77,30.04,10.0,NW,3.5,-,N/A,,Clear,310,2012-09-09 14:35:00
10:55 AM,66.2,57.2,73,30.05,10.0,West,3.5,-,N/A,,Scattered Clouds,260,2012-09-09 14:55:00
11:15 AM,66.2,57.2,73,30.05,10.0,WNW,3.5,-,N/A,,Mostly Cloudy,300,2012-09-09 15:15:00
11:35 AM,66.2,57.2,73,30.04,10.0,NNW,8.1,-,N/A,,Mostly Cloudy,330,2012-09-09 15:35:00
11:55 AM,64.4,57.2,77,30.05,10.0,West,4.6,-,N/A,,Mostly Cloudy,280,2012-09-09 15:55:00
12:15 PM,66.2,57.2,73,30.05,10.0,NW,4.6,-,N/A,,Mostly Cloudy,310,2012-09-09 16:15:00
12:35 PM,69.8,55.4,60,30.04,10.0,North,9.2,-,N/A,,Scattered Clouds,350,2012-09-09 16:35:00
12:55 PM,69.8,53.6,56,30.03,10.0,North,8.1,-,N/A,,Scattered Clouds,10,2012-09-09 16:55:00
1:15 PM,68.0,53.6,60,30.02,10.0,NNW,8.1,-,N/A,,Scattered Clouds,330,2012-09-09 17:15:00
1:35 PM,69.8,53.6,56,30.02,10.0,NNW,5.8,-,N/A,,Scattered Clouds,340,2012-09-09 17:35:00
1:55 PM,69.8,53.6,56,30.02,10.0,WNW,6.9,16.1,N/A,,Mostly Cloudy,300,2012-09-09 17:55:00
2:15 PM,71.6,53.6,53,30.01,10.0,NW,6.9,-,N/A,,Mostly Cloudy,310,2012-09-09 18:15:00
2:35 PM,69.8,53.6,56,30.01,10.0,North,5.8,-,N/A,,Overcast,10,2012-09-09 18:35:00
2:55 PM,71.6,53.6,53,30.01,10.0,WNW,9.2,-,N/A,,Mostly Cloudy,300,2012-09-09 18:55:00
3:15 PM,69.8,53.6,56,30.00,10.0,WNW,8.1,17.3,N/A,,Mostly Cloudy,300,2012-09-09 19:15:00
3:35 PM,73.4,55.4,53,30.00,10.0,North,5.8,-,N/A,,Mostly Cloudy,350,2012-09-09 19:35:00
3:55 PM,71.6,53.6,53,30.00,10.0,NW,3.5,-,N/A,,Overcast,320,2012-09-09 19:55:00
4:15 PM,71.6,51.8,50,30.00,10.0,WNW,11.5,21.9,N/A,,Mostly Cloudy,300,2012-09-09 20:15:00
4:35 PM,69.8,51.8,53,29.99,10.0,NW,9.2,-,N/A,,Scattered Clouds,310,2012-09-09 20:35:00
5:15 PM,69.8,51.8,53,30.00,10.0,NW,11.5,17.3,N/A,,Scattered Clouds,310,2012-09-09 21:15:00
5:35 PM,71.6,53.6,53,30.01,10.0,NNW,11.5,17.3,N/A,,Mostly Cloudy,330,2012-09-09 21:35:00
5:55 PM,71.6,51.8,50,30.01,10.0,NW,8.1,-,N/A,,Mostly Cloudy,310,2012-09-09 21:55:00
6:15 PM,71.6,51.8,50,30.02,10.0,NNW,9.2,-,N/A,,Scattered Clouds,330,2012-09-09 22:15:00
6:35 PM,69.8,51.8,53,30.02,10.0,WNW,6.9,-,N/A,,Scattered Clouds,300,2012-09-09 22:35:00
6:55 PM,69.8,51.8,53,30.02,10.0,WNW,3.5,-,N/A,,Scattered Clouds,290,2012-09-09 22:55:00
7:15 PM,66.2,51.8,60,30.03,10.0,WNW,5.8,-,N/A,,Scattered Clouds,300,2012-09-09 23:15:00
7:35 PM,64.4,53.6,68,30.04,10.0,NW,4.6,-,N/A,,Scattered Clouds,310,2012-09-09 23:35:00
7:55 PM,62.6,53.6,72,30.04,10.0,Calm,Calm,-,N/A,,Clear,0,2012-09-09 23:55:00
8:15 PM,60.8,53.6,77,30.05,10.0,WNW,3.5,-,N/A,,Clear,300,2012-09-10 00:15:00
8:35 PM,59.0,53.6,82,30.06,10.0,Calm,Calm,-,N/A,,Clear,0,2012-09-10 00:35:00
8:55 PM,60.8,53.6,77,30.07,10.0,NNW,4.6,-,N/A,,Clear,330,2012-09-10 00:55:00
9:15 PM,59.0,53.6,82,30.08,10.0,Calm,Calm,-,N/A,,Clear,0,2012-09-10 01:15:00
9:35 PM,57.2,53.6,88,30.09,10.0,Calm,Calm,-,N/A,,Scattered Clouds,0,2012-09-10 01:35:00
9:55 PM,55.4,53.6,94,30.09,10.0,Calm,Calm,-,N/A,,Clear,0,2012-09-10 01:55:00
10:15 PM,55.4,53.6,94,30.10,10.0,Calm,Calm,-,N/A,,Clear,0,2012-09-10 02:15:00
10:35 PM,55.4,53.6,94,30.10,10.0,Calm,Calm,-,N/A,,Clear,0,2012-09-10 02:35:00
10:55 PM,53.6,53.6,100,30.10,10.0,Calm,Calm,-,N/A,,Clear,0,2012-09-10 02:55:00
11:15 PM,53.6,53.6,100,30.10,10.0,Calm,Calm,-,N/A,,Clear,0,2012-09-10 03:15:00
11:35 PM,53.6,53.6,100,30.11,10.0,Calm,Calm,-,N/A,,Clear,0,2012-09-10 03:35:00
11:55 PM,53.6,53.6,100,30.11,10.0,Calm,Calm,-,N/A,,Clear,0,2012-09-10 03:55:00